Vorticity
38 37 22 3 17 7 6 8 9 10 9 8 7 7 7 6 6 6 6 7 6 6
27 25 -12 4 14 11 8 7 6 7 8 9 9 7 7 7 7 7 7 7 7 7
36 51 8 -6 12 16 13 10 9 8 6 5 8 6 7 7 6 6 6 6 6 7
-14 43 -18 20 10 1 11 16 7 6 4 5 8 7 9 8 6 6 5 6 5 6
12 42 -12 21 -13 62 -5 8 14 -2 5 4 -2 10 8 5 3 8 10 10 8 6
15 12 18 13 -35 5 -35 21 56 32 2 -1 48 27 12 -16 8 3 17 9 16 14
8 20 10 2 23 32 50 27 -15 32 -27 43 -13 15 5 27 13 57 34 -13 14 8
13 7 9 14 1 7 9 5 32 37 33 18 14 15 5 12 10 -6 14 11 -4 -5
11 10 10 10 14 9 12 4 6 10 15 16 11 6 15 6 2 3 5 8 1 16
7 7 8 7 7 6 6 7 7 8 9 11 8 15 13 12 15 13 5 17 -1 19
3 3 3 1 3 5 6 5 8 9 5 5 9 10 9 7 11 15 19 12 29 4
5 8 7 4 11 5 8 7 6 10 11 11 9 6 8 8 7 6 10 5 23 40
-2 2 1 -0 3 4 8 11 13 12 7 11 15 12 10 8 12 11 7 5 9 24
10 8 7 9 7 8 9 7 9 12 12 12 11 14 13 11 8 16 11 9 24 15
Height
3036 3038 3050 3059 3065 3073 3080 3087 3092 3096 3100 3104 3108 3112 3116 3119 3122 3125 3128 3130 3132 3133
3034 3037 3045 3051 3049 3064 3071 3077 3083 3088 3093 3097 3101 3104 3108 3112 3116 3118 3121 3124 3126 3128
3032 3037 3043 3044 3042 3054 3063 3069 3076 3081 3086 3090 3094 3097 3100 3105 3109 3111 3114 3117 3119 3122
3027 3030 3033 3039 3046 3049 3056 3063 3069 3074 3079 3083 3087 3091 3094 3099 3102 3104 3108 3111 3113 3115
3026 3028 3031 3032 3037 3043 3051 3058 3064 3069 3073 3076 3080 3084 3087 3092 3096 3098 3101 3104 3106 3108
3022 3023 3027 3029 3034 3037 3039 3043 3054 3057 3062 3067 3069 3077 3079 3082 3087 3091 3093 3096 3099 3101
3021 3023 3025 3028 3030 3033 3038 3042 3044 3048 3056 3060 3062 3065 3069 3073 3079 3081 3083 3086 3090 3092
3020 3023 3025 3027 3029 3033 3037 3039 3043 3048 3051 3053 3055 3059 3063 3068 3071 3071 3073 3075 3078 3082
3017 3021 3025 3028 3030 3031 3034 3036 3038 3041 3044 3047 3050 3054 3056 3061 3063 3064 3064 3067 3071 3073
3015 3018 3021 3024 3028 3031 3034 3035 3037 3039 3042 3045 3047 3048 3050 3052 3054 3054 3057 3058 3060 3064
3013 3016 3017 3021 3024 3027 3029 3030 3033 3035 3037 3039 3041 3043 3044 3047 3047 3049 3050 3052 3053 3056
3008 3010 3014 3017 3021 3024 3025 3026 3028 3031 3032 3034 3035 3037 3037 3039 3040 3041 3042 3044 3045 3049
3003 3005 3007 3009 3013 3016 3019 3022 3025 3026 3027 3027 3028 3028 3030 3032 3032 3034 3034 3037 3039 3042
2997 2999 3001 3003 3006 3008 3012 3014 3016 3018 3019 3020 3020 3020 3021 3023 3025 3027 3029 3031 3034 3035